Orbital Elements at Epoch 2459200.5 (2020-Dec-17.0) TDB
Reference: JPL 18 (heliocentric ecliptic J2000)
Element | Value | Uncertainty (1-sigma) | Units |
e | .137706770118752 | 5.1048e-08 | |
a | 2.690128379398878 | 1.6853e-08 | au |
q | 2.319679489067066 | 1.3685e-07 | au |
i | 13.66291125093889 | 5.3834e-06 | deg |
node | 214.8479566616166 | 1.8081e-05 | deg |
peri | 149.347629863204 | 2.4355e-05 | deg |
M | 192.6477410917613 | 1.6704e-05 | deg |
tp | 2459949.681447364425 (2023-Jan-05.18144736) | 7.627e-05 | TDB |
period | 1611.602513229747 4.41 | 1.5144e-05 4.146e-08 | d yr |
n | .2233801430841272 | 2.0991e-09 | deg/d |
Q | 3.06057726973069 | 1.9173e-08 | au |
|
| | Orbit Determination Parameters
Additional Information
|